Regional Weather Roundup
Issued by NWS

Home | Current Version | Previous Version | Text Only | Print | Product List | Glossary Off
Versions: 1 2 3 4 5 6 7 8 9 10 11 12 13 14 15 16 17 18 19 20 21 22 23 24 25 26 27 28 29 30 31 32 33 34 35 36 37 38 39 40 41 42 43 44 45 46 47 48 49 50

592
ASUS45 KSLC 251810
RWRUT

UTAH REGIONAL WEATHER ROUNDUP
NATIONAL WEATHER SERVICE SALT LAKE CITY UT
1200 PM MDT MON SEP 25 2017

UTZ001>011-023>025-251900-

NORTHERN UTAH

CITY           SKY/WX    TMP DP  RH WIND       PRES   REMARKS
BRIGHAM CITY   PTSUNNY   52  38  59 CALM      30.15S
DUGWAY         MOSUNNY   56  34  43 VRB3      30.12F
6HR MIN TEMP:  31; 6HR MAX TEMP:  56;

HILL AFB       SUNNY     52  38  59 E3        30.14F
LOGAN          MOSUNNY   51  43  74 CALM      30.14F
OGDEN          SUNNY     53  37  54 SE3       30.13F
SALT LAKE CITY MOSUNNY   54  38  54 CALM      30.13F
TOOELE VALLEY  SUNNY     54  41  62 N7        30.14S
WENDOVER       SUNNY     53  38  56 SE8       30.15S
HEBER CITY     MOSUNNY   48  34  57 CALM      30.14F
WEST JORDAN    SUNNY     52  43  70 S3        30.14F

$$

UTZ011>015-024>027-251900-

CENTRAL/NORTHEAST UTAH

CITY           SKY/WX    TMP DP  RH WIND       PRES   REMARKS
PROVO AIRPORT  MOSUNNY   49  39  68 VRB5      30.15F
MOAB/CANYONLAN SUNNY     59  31  34 VRB5      30.06F
DELTA          SUNNY     50  36  57 CALM      30.14S
PRICE          MOSUNNY   52  30  43 VRB7      30.10F
ROOSEVELT      SUNNY     50  34  53 CALM      30.16S
VERNAL         MOSUNNY   50  36  58 SE7       30.13F

$$

UTZ013>016-019>022-027-251900-

SOUTHERN UTAH

CITY           SKY/WX    TMP DP  RH WIND       PRES   REMARKS
BRYCE CANYON   SUNNY     49  23  36 NE9       30.13F
CEDAR CITY     SUNNY     53  33  46 N6        30.10F
MILFORD        SUNNY     54  35  48 N14G22    30.11F
ST GEORGE      CLEAR     62  29  28 VRB3      30.04F
HANKSVILLE     SUNNY     55  30  38 CALM      30.11S
BLANDING         N/A     58  26  29 S5        30.15F

$$

REGIONAL REPORTS     COLORADO/ARIZONA

CITY           SKY/WX    TMP DP  RH WIND       PRES   REMARKS
CRAIG, CO      PTSUNNY   52  30  43 CALM      30.13F
GRAND JUNCTION SUNNY     56  32  40 CALM      30.07F
RIFLE, CO      SUNNY     53  31  42 W5        30.08F
MONTROSE, CO   SUNNY     52  29  41 NW6       30.10F
CORTEZ, CO     SUNNY     57  19  22 SW8       30.07F
PAGE, AZ       SUNNY     61  28  28 N7        30.06F
GRAND CANYON   SUNNY     57  23  26 NE8       30.10F
KINGMAN, AZ    MOSUNNY   68  29  23 N12       29.99F
FLAGSTAFF, AZ  MOSUNNY   56  14  19 CALM      30.09F

$$

REGIONAL REPORTS    NEVADA/IDAHO/WYOMING

CITY           SKY/WX    TMP DP  RH WIND       PRES   REMARKS
LAS VEGAS, NV  MOSUNNY   72  28  19 VRB5      29.99F
ELY, NY        SUNNY     48  28  46 N8        30.15F
ELKO, NV       CLOUDY    55  28  35 NE5       30.15F
POCATELLO, ID  SUNNY     54  36  50 VRB7      30.16S
BURLEY, ID     SUNNY     53  36  52 VRB3      30.13F
FORT BRIDGER,  MOCLDY    46  34  61 W12       30.18F
EVANSTON, WY   CLOUDY    42  33  70 S6        30.16S
ROCK SPRINGS,  CLOUDY    40  33  76 SW12      30.14S WCI  33

$$




USA.gov is the U.S. government's official web portal to all federal, state and local government web resources and services.